contact:dominique.lefevre@mio.osupytheas.fr, maurice.libes@osupytheas.fr, didier.mallarino@osupytheas.fr
Project:EMSO http://www.emso-fr.org/EMSO-France
Depth: 2436.0 m
Title:EMSO Ligure Ouest : Data MII capteur CSTAR
DateTime,Latitude,Longitude,Instrument_Serial,Reference_Counts,Signal_Counts,Corrected_Signal_raw_counts,Calculated_Beam_c_inverse_meters,Internal_thermistor_counts
DateTime,Latitude,Longitude,Instrument_Serial,Reference_Counts,Signal_Counts,Corrected_Signal_raw_counts,Calculated_Beam_c_inverse_meters,Internal_thermistor_counts
2021-11-27T00:01:21,42.805,6.029,CST-1368DR,5063,6599,13939,0.454,551
2021-11-27T00:04:23,42.805,6.029,CST-1368DR,5062,6599,13941,0.454,551
2021-11-27T00:07:24,42.805,6.029,CST-1368DR,5063,6600,13940,0.454,551
2021-11-27T00:10:26,42.805,6.029,CST-1368DR,5062,6599,13941,0.454,551
2021-11-27T00:13:27,42.805,6.029,CST-1368DR,5062,6599,13940,0.454,551
2021-11-27T00:16:29,42.805,6.029,CST-1368DR,5062,6599,13941,0.454,551
2021-11-27T00:19:31,42.805,6.029,CST-1368DR,5062,6599,13941,0.454,551
2021-11-27T00:22:32,42.805,6.029,CST-1368DR,5062,6599,13942,0.454,551
2021-11-27T00:25:34,42.805,6.029,CST-1368DR,5062,6599,13942,0.454,551
2021-11-27T00:28:35,42.805,6.029,CST-1368DR,5062,6599,13941,0.454,551
2021-11-27T00:31:37,42.805,6.029,CST-1368DR,5062,6599,13941,0.454,551
2021-11-27T00:34:39,42.805,6.029,CST-1368DR,5062,6599,13941,0.454,551
2021-11-27T00:37:40,42.805,6.029,CST-1368DR,5062,6599,13941,0.454,551
2021-11-27T00:40:42,42.805,6.029,CST-1368DR,5062,6599,13941,0.454,551
2021-11-27T00:43:43,42.805,6.029,CST-1368DR,5062,6598,13939,0.454,551
2021-11-27T00:46:45,42.805,6.029,CST-1368DR,5062,6599,13942,0.454,551
2021-11-27T00:49:46,42.805,6.029,CST-1368DR,5062,6600,13942,0.454,551
2021-11-27T00:52:48,42.805,6.029,CST-1368DR,5062,6598,13939,0.454,551
2021-11-27T00:55:50,42.805,6.029,CST-1368DR,5062,6599,13940,0.454,551
2021-11-27T00:58:51,42.805,6.029,CST-1368DR,5062,6597,13936,0.455,551
2021-11-27T01:01:53,42.805,6.029,CST-1368DR,5062,6599,13941,0.454,551
2021-11-27T01:04:54,42.805,6.029,CST-1368DR,5062,6599,13942,0.454,551
2021-11-27T01:07:56,42.805,6.029,CST-1368DR,5062,6597,13937,0.455,551
2021-11-27T01:10:57,42.805,6.029,CST-1368DR,5062,6599,13941,0.454,551
2021-11-27T01:13:59,42.805,6.029,CST-1368DR,5062,6599,13942,0.454,551
2021-11-27T01:17:01,42.805,6.029,CST-1368DR,5062,6599,13940,0.454,551
2021-11-27T01:20:02,42.805,6.029,CST-1368DR,5062,6599,13941,0.454,551
2021-11-27T01:23:04,42.805,6.029,CST-1368DR,5062,6598,13940,0.454,551
2021-11-27T01:26:05,42.805,6.029,CST-1368DR,5062,6599,13941,0.454,551
2021-11-27T01:29:07,42.805,6.029,CST-1368DR,5062,6599,13941,0.454,551
2021-11-27T01:32:09,42.805,6.029,CST-1368DR,5062,6599,13941,0.454,551
2021-11-27T01:35:10,42.805,6.029,CST-1368DR,5062,6599,13942,0.454,551
2021-11-27T01:38:12,42.805,6.029,CST-1368DR,5062,6599,13940,0.454,551
2021-11-27T01:41:13,42.805,6.029,CST-1368DR,5062,6599,13941,0.454,551
2021-11-27T01:44:15,42.805,6.029,CST-1368DR,5062,6599,13941,0.454,551
2021-11-27T01:47:16,42.805,6.029,CST-1368DR,5062,6597,13937,0.455,551
2021-11-27T01:50:18,42.805,6.029,CST-1368DR,5062,6599,13942,0.454,551
2021-11-27T01:53:20,42.805,6.029,CST-1368DR,5062,6599,13940,0.454,551
2021-11-27T01:56:21,42.805,6.029,CST-1368DR,5062,6599,13940,0.454,551
2021-11-27T01:59:23,42.805,6.029,CST-1368DR,5062,6599,13941,0.454,551
2021-11-27T02:02:24,42.805,6.029,CST-1368DR,5062,6600,13942,0.454,551
2021-11-27T02:05:26,42.805,6.029,CST-1368DR,5062,6599,13940,0.454,551
2021-11-27T02:08:28,42.805,6.029,CST-1368DR,5062,6597,13937,0.455,551
2021-11-27T02:11:29,42.805,6.029,CST-1368DR,5062,6599,13941,0.454,551
2021-11-27T02:14:31,42.805,6.029,CST-1368DR,5062,6599,13940,0.454,551
2021-11-27T02:17:32,42.805,6.029,CST-1368DR,5062,6599,13941,0.454,551
2021-11-27T02:20:34,42.805,6.029,CST-1368DR,5062,6599,13940,0.454,551
2021-11-27T02:23:35,42.805,6.029,CST-1368DR,5062,6599,13940,0.454,550
2021-11-27T02:26:37,42.805,6.029,CST-1368DR,5062,6597,13937,0.455,551
2021-11-27T02:29:39,42.805,6.029,CST-1368DR,5062,6598,13938,0.455,551
2021-11-27T02:32:40,42.805,6.029,CST-1368DR,5062,6598,13939,0.454,551
2021-11-27T02:35:42,42.805,6.029,CST-1368DR,5062,6598,13939,0.454,551
2021-11-27T02:38:43,42.805,6.029,CST-1368DR,5062,6597,13937,0.455,551
2021-11-27T02:41:45,42.805,6.029,CST-1368DR,5062,6598,13939,0.454,551
2021-11-27T02:44:46,42.805,6.029,CST-1368DR,5062,6598,13940,0.454,551
2021-11-27T02:47:48,42.805,6.029,CST-1368DR,5062,6599,13940,0.454,551
2021-11-27T02:50:50,42.805,6.029,CST-1368DR,5062,6598,13940,0.454,551
2021-11-27T02:53:51,42.805,6.029,CST-1368DR,5062,6598,13938,0.455,551
2021-11-27T02:56:53,42.805,6.029,CST-1368DR,5062,6599,13940,0.454,550
2021-11-27T02:59:54,42.805,6.029,CST-1368DR,5062,6599,13941,0.454,551
2021-11-27T03:02:56,42.805,6.029,CST-1368DR,5062,6599,13940,0.454,551
2021-11-27T03:05:58,42.805,6.029,CST-1368DR,5062,6597,13937,0.455,551
2021-11-27T03:08:59,42.805,6.029,CST-1368DR,5062,6598,13939,0.454,551
2021-11-27T03:12:01,42.805,6.029,CST-1368DR,5062,6598,13939,0.454,551
2021-11-27T03:15:02,42.805,6.029,CST-1368DR,5062,6598,13938,0.455,551
2021-11-27T03:18:04,42.805,6.029,CST-1368DR,5062,6598,13939,0.454,551
2021-11-27T03:21:05,42.805,6.029,CST-1368DR,5062,6598,13938,0.455,551
2021-11-27T03:24:07,42.805,6.029,CST-1368DR,5062,6598,13938,0.455,551
2021-11-27T03:27:09,42.805,6.029,CST-1368DR,5062,6599,13940,0.454,551
2021-11-27T03:30:10,42.805,6.029,CST-1368DR,5062,6597,13937,0.455,551
2021-11-27T03:33:12,42.805,6.029,CST-1368DR,5062,6597,13937,0.455,551
2021-11-27T03:36:13,42.805,6.029,CST-1368DR,5062,6597,13937,0.455,551
2021-11-27T03:39:15,42.805,6.029,CST-1368DR,5062,6597,13937,0.455,551
2021-11-27T03:42:17,42.805,6.029,CST-1368DR,5062,6597,13936,0.455,551
2021-11-27T03:45:18,42.805,6.029,CST-1368DR,5062,6598,13938,0.455,551
2021-11-27T03:48:20,42.805,6.029,CST-1368DR,5062,6597,13937,0.455,551
2021-11-27T03:51:21,42.805,6.029,CST-1368DR,5062,6598,13939,0.454,551
2021-11-27T03:54:23,42.805,6.029,CST-1368DR,5062,6598,13939,0.454,551
2021-11-27T03:57:24,42.805,6.029,CST-1368DR,5062,6597,13937,0.455,551
2021-11-27T04:00:26,42.805,6.029,CST-1368DR,5062,6599,13940,0.454,551
2021-11-27T04:03:28,42.805,6.029,CST-1368DR,5062,6598,13939,0.454,551
2021-11-27T04:06:29,42.805,6.029,CST-1368DR,5062,6597,13936,0.455,551
2021-11-27T04:09:31,42.805,6.029,CST-1368DR,5062,6599,13940,0.454,551
2021-11-27T04:12:32,42.805,6.029,CST-1368DR,5062,6598,13938,0.455,551
2021-11-27T04:15:34,42.805,6.029,CST-1368DR,5062,6598,13938,0.455,551
2021-11-27T04:18:35,42.805,6.029,CST-1368DR,5062,6597,13936,0.455,551
2021-11-27T04:21:37,42.805,6.029,CST-1368DR,5062,6599,13940,0.454,551
2021-11-27T04:24:39,42.805,6.029,CST-1368DR,5062,6597,13937,0.455,551
2021-11-27T04:27:40,42.805,6.029,CST-1368DR,5062,6598,13938,0.455,551
2021-11-27T04:30:42,42.805,6.029,CST-1368DR,5062,6598,13938,0.455,550
2021-11-27T04:33:43,42.805,6.029,CST-1368DR,5062,6597,13937,0.455,551
2021-11-27T04:36:45,42.805,6.029,CST-1368DR,5062,6597,13937,0.455,551
2021-11-27T04:39:47,42.805,6.029,CST-1368DR,5062,6597,13937,0.455,551
2021-11-27T04:42:48,42.805,6.029,CST-1368DR,5062,6596,13934,0.456,551
2021-11-27T04:45:50,42.805,6.029,CST-1368DR,5062,6597,13937,0.455,551
2021-11-27T04:48:51,42.805,6.029,CST-1368DR,5062,6597,13937,0.455,551
2021-11-27T04:51:53,42.805,6.029,CST-1368DR,5062,6598,13938,0.455,551
2021-11-27T04:54:54,42.805,6.029,CST-1368DR,5062,6598,13938,0.455,551
2021-11-27T04:57:56,42.805,6.029,CST-1368DR,5062,6597,13937,0.455,551
2021-11-27T05:00:58,42.805,6.029,CST-1368DR,5062,6596,13935,0.456,551
2021-11-27T05:03:59,42.805,6.029,CST-1368DR,5062,6598,13939,0.454,551
2021-11-27T05:07:01,42.805,6.029,CST-1368DR,5062,6597,13937,0.455,551
2021-11-27T05:10:02,42.805,6.029,CST-1368DR,5062,6598,13938,0.455,551
2021-11-27T05:13:04,42.805,6.029,CST-1368DR,5062,6598,13938,0.455,551
2021-11-27T05:16:06,42.805,6.029,CST-1368DR,5062,6597,13937,0.455,551
2021-11-27T05:19:07,42.805,6.029,CST-1368DR,5062,6596,13934,0.456,551
2021-11-27T05:22:09,42.805,6.029,CST-1368DR,5062,6597,13936,0.455,551
2021-11-27T05:25:10,42.805,6.029,CST-1368DR,5062,6597,13937,0.455,551
2021-11-27T05:28:12,42.805,6.029,CST-1368DR,5062,6598,13939,0.454,551
2021-11-27T05:31:13,42.805,6.029,CST-1368DR,5062,6597,13936,0.455,551
2021-11-27T05:34:15,42.805,6.029,CST-1368DR,5062,6597,13937,0.455,551
2021-11-27T05:37:17,42.805,6.029,CST-1368DR,5062,6598,13938,0.455,551
2021-11-27T05:40:18,42.805,6.029,CST-1368DR,5062,6597,13936,0.455,551
2021-11-27T05:43:20,42.805,6.029,CST-1368DR,5062,6597,13937,0.455,551
2021-11-27T05:46:21,42.805,6.029,CST-1368DR,5062,6595,13933,0.456,551
2021-11-27T05:49:23,42.805,6.029,CST-1368DR,5062,6597,13937,0.455,551
2021-11-27T05:52:24,42.805,6.029,CST-1368DR,5062,6598,13938,0.455,551
2021-11-27T05:55:26,42.805,6.029,CST-1368DR,5062,6597,13937,0.455,551
2021-11-27T05:58:28,42.805,6.029,CST-1368DR,5062,6597,13937,0.455,551
2021-11-27T06:01:29,42.805,6.029,CST-1368DR,5062,6598,13939,0.454,551
2021-11-27T06:04:31,42.805,6.029,CST-1368DR,5062,6597,13937,0.455,551
2021-11-27T06:07:32,42.805,6.029,CST-1368DR,5062,6597,13937,0.455,551
2021-11-27T06:10:34,42.805,6.029,CST-1368DR,5062,6597,13937,0.455,551
2021-11-27T06:13:36,42.805,6.029,CST-1368DR,5062,6597,13936,0.455,551
2021-11-27T06:16:37,42.805,6.029,CST-1368DR,5062,6597,13937,0.455,551
2021-11-27T06:19:39,42.805,6.029,CST-1368DR,5062,6597,13936,0.455,551
2021-11-27T06:22:40,42.805,6.029,CST-1368DR,5062,6597,13937,0.455,551
2021-11-27T06:25:42,42.805,6.029,CST-1368DR,5062,6596,13935,0.456,551
2021-11-27T06:28:43,42.805,6.029,CST-1368DR,5062,6596,13934,0.456,551
2021-11-27T06:31:45,42.805,6.029,CST-1368DR,5062,6596,13935,0.456,551
2021-11-27T06:34:47,42.805,6.029,CST-1368DR,5062,6597,13936,0.455,551
2021-11-27T06:37:48,42.805,6.029,CST-1368DR,5062,6596,13935,0.456,551
2021-11-27T06:40:50,42.805,6.029,CST-1368DR,5062,6597,13936,0.455,551
2021-11-27T06:43:51,42.805,6.029,CST-1368DR,5062,6597,13936,0.455,551
2021-11-27T06:46:53,42.805,6.029,CST-1368DR,5062,6597,13937,0.455,551
2021-11-27T06:49:55,42.805,6.029,CST-1368DR,5062,6595,13932,0.456,551
2021-11-27T06:52:56,42.805,6.029,CST-1368DR,5062,6597,13936,0.455,551
2021-11-27T06:55:58,42.805,6.029,CST-1368DR,5062,6596,13935,0.456,551
2021-11-27T06:58:59,42.805,6.029,CST-1368DR,5062,6596,13934,0.456,551
2021-11-27T07:02:01,42.805,6.029,CST-1368DR,5062,6596,13935,0.456,551
2021-11-27T07:05:02,42.805,6.029,CST-1368DR,5062,6597,13936,0.455,551
2021-11-27T07:08:04,42.805,6.029,CST-1368DR,5062,6596,13934,0.456,551
2021-11-27T07:11:06,42.805,6.029,CST-1368DR,5062,6596,13934,0.456,551
2021-11-27T07:14:07,42.805,6.029,CST-1368DR,5062,6596,13934,0.456,551
2021-11-27T07:17:09,42.805,6.029,CST-1368DR,5062,6595,13933,0.456,551
2021-11-27T07:20:10,42.805,6.029,CST-1368DR,5062,6596,13934,0.456,551
2021-11-27T07:23:12,42.805,6.029,CST-1368DR,5062,6596,13934,0.456,551
2021-11-27T07:26:13,42.805,6.029,CST-1368DR,5062,6595,13933,0.456,551
2021-11-27T07:29:15,42.805,6.029,CST-1368DR,5062,6595,13932,0.456,551
2021-11-27T07:32:17,42.805,6.029,CST-1368DR,5062,6595,13933,0.456,551
2021-11-27T07:35:18,42.805,6.029,CST-1368DR,5062,6594,13931,0.457,551
2021-11-27T07:38:20,42.805,6.029,CST-1368DR,5062,6595,13932,0.456,551
2021-11-27T07:41:21,42.805,6.029,CST-1368DR,5062,6595,13933,0.456,551
2021-11-27T07:44:23,42.805,6.029,CST-1368DR,5062,6595,13933,0.456,551
2021-11-27T07:47:25,42.805,6.029,CST-1368DR,5062,6595,13932,0.456,551
2021-11-27T07:50:26,42.805,6.029,CST-1368DR,5062,6596,13934,0.456,551
2021-11-27T07:53:28,42.805,6.029,CST-1368DR,5062,6595,13933,0.456,551
2021-11-27T07:56:29,42.805,6.029,CST-1368DR,5062,6594,13930,0.457,551
2021-11-27T07:59:31,42.805,6.029,CST-1368DR,5062,6595,13933,0.456,551
2021-11-27T08:02:32,42.805,6.029,CST-1368DR,5062,6596,13934,0.456,551
2021-11-27T08:05:34,42.805,6.029,CST-1368DR,5062,6595,13932,0.456,551
2021-11-27T08:08:36,42.805,6.029,CST-1368DR,5062,6594,13931,0.457,551
2021-11-27T08:11:37,42.805,6.029,CST-1368DR,5062,6595,13932,0.456,551
2021-11-27T08:14:39,42.805,6.029,CST-1368DR,5062,6595,13932,0.456,551
2021-11-27T08:17:40,42.805,6.029,CST-1368DR,5062,6595,13932,0.456,551
2021-11-27T08:20:42,42.805,6.029,CST-1368DR,5062,6595,13933,0.456,551
2021-11-27T08:23:43,42.805,6.029,CST-1368DR,5062,6595,13933,0.456,551
2021-11-27T08:26:45,42.805,6.029,CST-1368DR,5062,6594,13931,0.457,551
2021-11-27T08:29:47,42.805,6.029,CST-1368DR,5062,6593,13929,0.457,551
2021-11-27T08:32:48,42.805,6.029,CST-1368DR,5062,6596,13934,0.456,551
2021-11-27T08:35:50,42.805,6.029,CST-1368DR,5062,6595,13932,0.456,551
2021-11-27T08:38:51,42.805,6.029,CST-1368DR,5062,6592,13926,0.458,551
2021-11-27T08:41:53,42.805,6.029,CST-1368DR,5062,6595,13932,0.456,551
2021-11-27T08:44:55,42.805,6.029,CST-1368DR,5062,6594,13931,0.457,551
2021-11-27T08:47:56,42.805,6.029,CST-1368DR,5062,6595,13933,0.456,551
2021-11-27T08:50:58,42.805,6.029,CST-1368DR,5062,6594,13930,0.457,551
2021-11-27T08:53:59,42.805,6.029,CST-1368DR,5062,6594,13931,0.457,551
2021-11-27T08:57:01,42.805,6.029,CST-1368DR,5062,6595,13932,0.456,551
2021-11-27T09:00:02,42.805,6.029,CST-1368DR,5062,6594,13929,0.457,551
2021-11-27T09:03:04,42.805,6.029,CST-1368DR,5062,6595,13932,0.456,551
2021-11-27T09:06:06,42.805,6.029,CST-1368DR,5062,6594,13931,0.457,551
2021-11-27T09:09:07,42.805,6.029,CST-1368DR,5062,6595,13932,0.456,551
2021-11-27T09:12:09,42.805,6.029,CST-1368DR,5062,6595,13932,0.456,551
2021-11-27T09:15:10,42.805,6.029,CST-1368DR,5062,6595,13933,0.456,551
2021-11-27T09:18:12,42.805,6.029,CST-1368DR,5062,6593,13927,0.458,551
2021-11-27T09:21:14,42.805,6.029,CST-1368DR,5062,6594,13929,0.457,551
2021-11-27T09:24:15,42.805,6.029,CST-1368DR,5062,6592,13926,0.458,551
2021-11-27T09:27:17,42.805,6.029,CST-1368DR,5062,6594,13929,0.457,550
2021-11-27T09:30:18,42.805,6.029,CST-1368DR,5062,6595,13933,0.456,551
2021-11-27T09:33:20,42.805,6.029,CST-1368DR,5062,6595,13932,0.456,551
2021-11-27T09:36:21,42.805,6.029,CST-1368DR,5062,6593,13929,0.457,551
2021-11-27T09:39:23,42.805,6.029,CST-1368DR,5062,6595,13933,0.456,551
2021-11-27T09:42:25,42.805,6.029,CST-1368DR,5062,6593,13928,0.458,551
2021-11-27T09:45:26,42.805,6.029,CST-1368DR,5062,6593,13929,0.457,551
2021-11-27T09:48:28,42.805,6.029,CST-1368DR,5062,6595,13932,0.456,551
2021-11-27T09:51:29,42.805,6.029,CST-1368DR,5062,6594,13929,0.457,551
2021-11-27T09:54:31,42.805,6.029,CST-1368DR,5062,6596,13934,0.456,551
2021-11-27T09:57:32,42.805,6.029,CST-1368DR,5062,6595,13933,0.456,551
2021-11-27T10:00:34,42.805,6.029,CST-1368DR,5062,6595,13932,0.456,551
2021-11-27T10:03:36,42.805,6.029,CST-1368DR,5062,6595,13933,0.456,551
2021-11-27T10:06:37,42.805,6.029,CST-1368DR,5061,6594,13932,0.456,551
2021-11-27T10:09:39,42.805,6.029,CST-1368DR,5061,6593,13932,0.456,551
2021-11-27T10:12:40,42.805,6.029,CST-1368DR,5061,6595,13936,0.455,551
2021-11-27T10:15:42,42.805,6.029,CST-1368DR,5061,6595,13935,0.456,551
2021-11-27T10:18:44,42.805,6.029,CST-1368DR,5061,6595,13934,0.456,551
2021-11-27T10:21:45,42.805,6.029,CST-1368DR,5061,6595,13935,0.456,551
2021-11-27T10:24:47,42.805,6.029,CST-1368DR,5061,6595,13934,0.456,551
2021-11-27T10:27:48,42.805,6.029,CST-1368DR,5061,6595,13934,0.456,551
2021-11-27T10:30:50,42.805,6.029,CST-1368DR,5061,6595,13935,0.456,551
2021-11-27T10:33:51,42.805,6.029,CST-1368DR,5061,6595,13935,0.456,551
2021-11-27T10:36:53,42.805,6.029,CST-1368DR,5061,6595,13935,0.456,551
2021-11-27T10:39:55,42.805,6.029,CST-1368DR,5061,6595,13935,0.456,551
2021-11-27T10:42:56,42.805,6.029,CST-1368DR,5061,6595,13934,0.456,551
2021-11-27T10:45:58,42.805,6.029,CST-1368DR,5061,6595,13934,0.456,551
2021-11-27T10:48:59,42.805,6.029,CST-1368DR,5061,6595,13935,0.456,551
2021-11-27T10:52:01,42.805,6.029,CST-1368DR,5061,6595,13935,0.456,551
2021-11-27T10:55:03,42.805,6.029,CST-1368DR,5061,6595,13936,0.455,551
2021-11-27T10:58:04,42.805,6.029,CST-1368DR,5061,6595,13935,0.456,551
2021-11-27T11:01:06,42.805,6.029,CST-1368DR,5061,6594,13934,0.456,551
2021-11-27T11:04:07,42.805,6.029,CST-1368DR,5061,6593,13931,0.457,551
2021-11-27T11:07:09,42.805,6.029,CST-1368DR,5061,6594,13934,0.456,551
2021-11-27T11:10:10,42.805,6.029,CST-1368DR,5061,6594,13933,0.456,551
2021-11-27T11:13:12,42.805,6.029,CST-1368DR,5061,6593,13932,0.456,551
2021-11-27T11:16:14,42.805,6.029,CST-1368DR,5061,6593,13932,0.456,551
2021-11-27T11:19:15,42.805,6.029,CST-1368DR,5061,6595,13935,0.456,551
2021-11-27T11:22:17,42.805,6.029,CST-1368DR,5061,6595,13934,0.456,551
2021-11-27T11:25:18,42.805,6.029,CST-1368DR,5061,6595,13935,0.456,551
2021-11-27T11:28:20,42.805,6.029,CST-1368DR,5061,6596,13936,0.455,551
2021-11-27T11:31:21,42.805,6.029,CST-1368DR,5061,6595,13935,0.456,551
2021-11-27T11:34:23,42.805,6.029,CST-1368DR,5061,6594,13932,0.456,551
2021-11-27T11:37:25,42.805,6.029,CST-1368DR,5061,6595,13935,0.456,551
2021-11-27T11:40:26,42.805,6.029,CST-1368DR,5061,6595,13935,0.456,551
2021-11-27T11:43:28,42.805,6.029,CST-1368DR,5061,6595,13935,0.456,551
2021-11-27T11:46:29,42.805,6.029,CST-1368DR,5061,6595,13934,0.456,551
2021-11-27T11:49:31,42.805,6.029,CST-1368DR,5061,6595,13935,0.456,551
2021-11-27T11:52:33,42.805,6.029,CST-1368DR,5061,6595,13935,0.456,551
2021-11-27T11:55:34,42.805,6.029,CST-1368DR,5061,6595,13934,0.456,551
2021-11-27T11:58:36,42.805,6.029,CST-1368DR,5061,6595,13935,0.456,551
2021-11-27T12:01:37,42.805,6.029,CST-1368DR,5061,6594,13934,0.456,551
2021-11-27T12:04:39,42.805,6.029,CST-1368DR,5061,6595,13935,0.456,551
2021-11-27T12:07:40,42.805,6.029,CST-1368DR,5061,6594,13933,0.456,551
2021-11-27T12:10:42,42.805,6.029,CST-1368DR,5061,6595,13934,0.456,551
2021-11-27T12:13:44,42.805,6.029,CST-1368DR,5061,6594,13933,0.456,551
2021-11-27T12:16:45,42.805,6.029,CST-1368DR,5061,6595,13934,0.456,551
2021-11-27T12:19:47,42.805,6.029,CST-1368DR,5061,6595,13934,0.456,551
2021-11-27T12:22:48,42.805,6.029,CST-1368DR,5061,6595,13934,0.456,551
2021-11-27T12:25:50,42.805,6.029,CST-1368DR,5061,6593,13932,0.456,551
2021-11-27T12:28:52,42.805,6.029,CST-1368DR,5061,6595,13934,0.456,551
2021-11-27T12:31:53,42.805,6.029,CST-1368DR,5061,6594,13932,0.456,551
2021-11-27T12:34:55,42.805,6.029,CST-1368DR,5061,6595,13934,0.456,551
2021-11-27T12:37:56,42.805,6.029,CST-1368DR,5061,6595,13935,0.456,551
2021-11-27T12:40:58,42.805,6.029,CST-1368DR,5061,6593,13932,0.456,551
2021-11-27T12:43:59,42.805,6.029,CST-1368DR,5061,6595,13935,0.456,551
2021-11-27T12:47:01,42.805,6.029,CST-1368DR,5061,6595,13935,0.456,551
2021-11-27T12:50:03,42.805,6.029,CST-1368DR,5061,6595,13935,0.456,551
2021-11-27T12:53:04,42.805,6.029,CST-1368DR,5061,6594,13932,0.456,551
2021-11-27T12:56:06,42.805,6.029,CST-1368DR,5061,6594,13932,0.456,551
2021-11-27T12:59:07,42.805,6.029,CST-1368DR,5061,6595,13935,0.456,551
2021-11-27T13:02:09,42.805,6.029,CST-1368DR,5061,6595,13935,0.456,551
2021-11-27T13:05:10,42.805,6.029,CST-1368DR,5061,6595,13936,0.455,551
2021-11-27T13:08:12,42.805,6.029,CST-1368DR,5061,6593,13931,0.457,551
2021-11-27T13:11:14,42.805,6.029,CST-1368DR,5061,6595,13935,0.456,551
2021-11-27T13:14:15,42.805,6.029,CST-1368DR,5061,6595,13935,0.456,551
2021-11-27T13:17:17,42.805,6.029,CST-1368DR,5061,6595,13935,0.456,551
2021-11-27T13:20:18,42.805,6.029,CST-1368DR,5061,6595,13935,0.456,551
2021-11-27T13:23:20,42.805,6.029,CST-1368DR,5061,6595,13935,0.456,551
2021-11-27T13:26:22,42.805,6.029,CST-1368DR,5061,6595,13934,0.456,551
2021-11-27T13:29:23,42.805,6.029,CST-1368DR,5061,6594,13932,0.456,551
2021-11-27T13:32:25,42.805,6.029,CST-1368DR,5061,6592,13929,0.457,551
2021-11-27T13:35:26,42.805,6.029,CST-1368DR,5061,6593,13931,0.457,551
2021-11-27T13:38:28,42.805,6.029,CST-1368DR,5061,6595,13934,0.456,551
2021-11-27T13:41:29,42.805,6.029,CST-1368DR,5061,6594,13932,0.456,551
2021-11-27T13:44:31,42.805,6.029,CST-1368DR,5061,6594,13934,0.456,551
2021-11-27T13:47:33,42.805,6.029,CST-1368DR,5061,6594,13934,0.456,551
2021-11-27T13:50:34,42.805,6.029,CST-1368DR,5061,6595,13934,0.456,551
2021-11-27T13:53:36,42.805,6.029,CST-1368DR,5061,6595,13934,0.456,551
2021-11-27T13:56:37,42.805,6.029,CST-1368DR,5061,6594,13933,0.456,551
2021-11-27T13:59:39,42.805,6.029,CST-1368DR,5061,6594,13934,0.456,551
2021-11-27T14:02:41,42.805,6.029,CST-1368DR,5061,6594,13934,0.456,551
2021-11-27T14:05:42,42.805,6.029,CST-1368DR,5061,6594,13934,0.456,551
2021-11-27T14:08:44,42.805,6.029,CST-1368DR,5061,6589,13922,0.459,551
2021-11-27T14:11:45,42.805,6.029,CST-1368DR,5061,6594,13932,0.456,551
2021-11-27T14:14:47,42.805,6.029,CST-1368DR,5061,6593,13932,0.456,551
2021-11-27T14:17:48,42.805,6.029,CST-1368DR,5061,6593,13932,0.456,551
2021-11-27T14:20:50,42.805,6.029,CST-1368DR,5061,6594,13933,0.456,551
2021-11-27T14:23:52,42.805,6.029,CST-1368DR,5061,6593,13930,0.457,551
2021-11-27T14:26:53,42.805,6.029,CST-1368DR,5061,6595,13934,0.456,551
2021-11-27T14:29:55,42.805,6.029,CST-1368DR,5061,6594,13933,0.456,551
2021-11-27T14:32:56,42.805,6.029,CST-1368DR,5061,6593,13931,0.457,551
2021-11-27T14:35:58,42.805,6.029,CST-1368DR,5061,6593,13931,0.457,551
2021-11-27T14:38:59,42.805,6.029,CST-1368DR,5061,6593,13932,0.456,551
2021-11-27T14:42:01,42.805,6.029,CST-1368DR,5061,6594,13933,0.456,551
2021-11-27T14:45:03,42.805,6.029,CST-1368DR,5061,6593,13931,0.457,551
2021-11-27T14:48:04,42.805,6.029,CST-1368DR,5061,6593,13931,0.457,551
2021-11-27T14:51:06,42.805,6.029,CST-1368DR,5061,6594,13934,0.456,551
2021-11-27T14:54:07,42.805,6.029,CST-1368DR,5061,6593,13932,0.456,551
2021-11-27T14:57:09,42.805,6.029,CST-1368DR,5061,6595,13934,0.456,551
2021-11-27T15:00:11,42.805,6.029,CST-1368DR,5061,6594,13933,0.456,551
2021-11-27T15:03:12,42.805,6.029,CST-1368DR,5061,6593,13932,0.456,551
2021-11-27T15:06:14,42.805,6.029,CST-1368DR,5061,6594,13932,0.456,551
2021-11-27T15:09:15,42.805,6.029,CST-1368DR,5061,6593,13930,0.457,551
2021-11-27T15:12:17,42.805,6.029,CST-1368DR,5061,6593,13931,0.457,550
2021-11-27T15:15:18,42.805,6.029,CST-1368DR,5061,6594,13934,0.456,551
2021-11-27T15:18:20,42.805,6.029,CST-1368DR,5061,6594,13934,0.456,551
2021-11-27T15:21:22,42.805,6.029,CST-1368DR,5061,6594,13934,0.456,551
2021-11-27T15:24:23,42.805,6.029,CST-1368DR,5061,6593,13932,0.456,551
2021-11-27T15:27:25,42.805,6.029,CST-1368DR,5061,6592,13929,0.457,551
2021-11-27T15:30:26,42.805,6.029,CST-1368DR,5061,6595,13935,0.456,551
2021-11-27T15:33:28,42.805,6.029,CST-1368DR,5061,6593,13931,0.457,551
2021-11-27T15:36:30,42.805,6.029,CST-1368DR,5061,6593,13932,0.456,551
2021-11-27T15:39:31,42.805,6.029,CST-1368DR,5061,6595,13934,0.456,551
2021-11-27T15:42:33,42.805,6.029,CST-1368DR,5061,6594,13933,0.456,551
2021-11-27T15:45:34,42.805,6.029,CST-1368DR,5061,6594,13934,0.456,551
2021-11-27T15:48:36,42.805,6.029,CST-1368DR,5061,6593,13931,0.457,551
2021-11-27T15:51:37,42.805,6.029,CST-1368DR,5061,6594,13933,0.456,551
2021-11-27T15:54:39,42.805,6.029,CST-1368DR,5061,6593,13930,0.457,551
2021-11-27T15:57:41,42.805,6.029,CST-1368DR,5061,6593,13931,0.457,551
2021-11-27T16:00:42,42.805,6.029,CST-1368DR,5061,6594,13932,0.456,551
2021-11-27T16:03:44,42.805,6.029,CST-1368DR,5061,6593,13930,0.457,551
2021-11-27T16:06:45,42.805,6.029,CST-1368DR,5061,6593,13931,0.457,551
2021-11-27T16:09:47,42.805,6.029,CST-1368DR,5061,6593,13932,0.456,551
2021-11-27T16:12:49,42.805,6.029,CST-1368DR,5061,6594,13933,0.456,551
2021-11-27T16:15:50,42.805,6.029,CST-1368DR,5061,6593,13932,0.456,551
2021-11-27T16:18:52,42.805,6.029,CST-1368DR,5061,6594,13933,0.456,551
2021-11-27T16:21:53,42.805,6.029,CST-1368DR,5061,6594,13934,0.456,551
2021-11-27T16:24:55,42.805,6.029,CST-1368DR,5061,6593,13931,0.457,551
2021-11-27T16:27:56,42.805,6.029,CST-1368DR,5061,6593,13931,0.457,551
2021-11-27T16:30:58,42.805,6.029,CST-1368DR,5061,6592,13928,0.458,551
2021-11-27T16:34:00,42.805,6.029,CST-1368DR,5061,6593,13932,0.456,551
2021-11-27T16:37:01,42.805,6.029,CST-1368DR,5061,6593,13932,0.456,551
2021-11-27T16:40:03,42.805,6.029,CST-1368DR,5061,6594,13932,0.456,551
2021-11-27T16:43:04,42.805,6.029,CST-1368DR,5061,6593,13931,0.457,551
2021-11-27T16:46:06,42.805,6.029,CST-1368DR,5061,6594,13933,0.456,551
2021-11-27T16:49:07,42.805,6.029,CST-1368DR,5061,6594,13932,0.456,551
2021-11-27T16:52:09,42.805,6.029,CST-1368DR,5061,6588,13921,0.460,551